Overview Statistics Trail Chart Weather Telemetry Raw packets
 

This is the latest recevied weather packets stored in our database for station/object KQ7A. If no packets are shown the sender has not sent any weather packets the latest 10 day(s).

<< 64 65 66 67 68 69 70 >>
Time Temp. Humidity Pressure Rain* Wind** Luminosity Snow
1788233068 19.44° C 35% 1014.4 hPa 0 mm - 0 W/m² -
1788232774 19.44° C 35% 1014.5 hPa 0 mm - 0 W/m² -
1788232459 20° C 32% 1014.1 hPa 0 mm - 0 W/m² -
1788232153 20.56° C 30% 1014.1 hPa 0 mm - 0 W/m² -
1788231849 21.11° C 30% 1014.3 hPa 0 mm - 0 W/m² -
1788231547 21.11° C 29% 1014 hPa 0 mm - 0 W/m² -
1788231243 21.67° C 31% 1013.8 hPa 0 mm - 0 W/m² -
1788230937 21.67° C 27% 1013.8 hPa 0 mm - 0 W/m² -
1788230636 21.67° C 28% 1013.8 hPa 0 mm - 0 W/m² -
1788230335 21.11° C 29% 1013.8 hPa 0 mm - 0 W/m² -
1788230030 21.11° C 33% 1013.8 hPa 0 mm - 0 W/m² -
1788229725 21.11° C 31% 1013.8 hPa 0 mm - 2 W/m² -
1788229422 21.67° C 32% 1013.5 hPa 0 mm - 3 W/m² -
1788229116 21.67° C 32% 1013.6 hPa 0 mm - 6 W/m² -
1788228816 22.22° C 27% 1013.6 hPa 0 mm - 9 W/m² -
1788228506 23.33° C 30% 1013.3 hPa 0 mm - 14 W/m² -
1788228201 23.89° C 25% 1013.5 hPa 0 mm - 19 W/m² -
1788227896 23.33° C 26% 1013.6 hPa 0 mm - 24 W/m² -
1788227593 23.89° C 27% 1013.3 hPa 0 mm - 27 W/m² -
1788227291 24.44° C 24% 1013.1 hPa 0 mm - 26 W/m² -
1788226988 25° C 24% 1013.2 hPa 0 mm - 28 W/m² -
1788226683 24.44° C 22% 1013.2 hPa 0 mm - 29 W/m² -
1788226378 24.44° C 22% 1013 hPa 0 mm - 31 W/m² -
1788226074 25° C 23% 1013 hPa 0 mm - 33 W/m² -
1788225774 25° C 23% 1013.1 hPa 0 mm - 34 W/m² -

* Rain latest hour (hover to see other rain measurements)
** Current wind speed in m/s (hover to see current wind gust speed)